GFSSW_850_temp_285.txt.gz
Temp
18 19 19 20 20 20 20 21 21 22 22 22 23 23 24 24 25 25 24 23 23 22 22 22 22 21 21 21 20 20 24 24 24 25 24 23 23 22 21 21 21 19 19 18 16
18 18 19 20 20 20 20 20 21 22 22 22 23 23 24 25 25 25 25 23 23 23 22 22 22 21 20 20 20 22 25 25 26 26 25 24 24 22 22 22 20 18 18 17 17
17 18 19 19 20 20 20 20 21 21 22 22 23 24 24 25 25 26 26 23 23 23 22 22 22 21 21 21 21 22 25 24 26 25 25 24 23 23 23 23 21 19 17 16 16
17 18 19 19 20 20 20 20 20 21 22 22 23 24 25 25 26 26 25 23 23 23 23 22 22 22 23 24 21 25 24 24 25 25 24 24 23 23 23 23 21 20 19 17 17
17 17 18 19 20 20 20 20 21 21 22 22 23 24 25 25 25 26 25 24 23 23 23 23 22 23 24 24 22 26 25 26 25 24 24 24 23 23 21 20 20 19 18 18 17
16 17 18 19 20 20 20 21 21 21 22 22 23 24 24 25 25 26 26 25 24 23 24 24 23 23 23 23 24 23 25 25 25 24 24 24 23 23 20 20 20 19 19 18 18
16 17 18 19 20 20 21 21 21 21 22 23 24 24 24 24 25 25 25 25 25 24 24 24 24 24 24 23 22 24 26 26 25 24 24 24 23 24 20 20 20 20 19 18 18
17 17 18 19 20 21 21 21 22 22 22 23 24 24 24 25 25 25 24 24 25 25 24 24 24 24 24 23 24 25 25 25 25 25 23 25 24 22 21 21 21 20 19 19 19
17 17 18 20 21 21 22 22 22 22 22 23 24 24 24 25 25 25 25 25 25 25 25 24 24 25 25 26 25 25 25 25 25 26 25 26 24 22 21 21 21 20 20 20 19
17 18 18 20 21 22 22 22 22 22 23 23 24 24 25 25 25 25 25 25 25 25 25 24 25 27 26 27 26 26 26 26 26 26 26 25 25 23 22 22 22 21 21 20 20
17 18 19 20 22 23 22 22 22 23 23 23 23 24 25 25 26 26 26 26 26 26 28 25 28 28 28 27 28 27 27 27 27 26 26 26 25 24 22 22 22 22 21 21 21
17 18 19 20 22 22 22 22 21 21 23 24 24 25 25 25 26 26 26 26 26 25 26 27 28 28 27 27 27 27 27 27 27 26 27 25 25 24 23 23 23 23 22 22 22
17 18 19 20 22 22 22 22 22 22 22 24 25 25 26 26 26 26 26 26 27 25 27 27 28 27 27 26 27 27 28 27 28 26 26 26 26 24 24 23 23 23 23 22 23
17 18 19 20 21 22 22 22 23 23 23 24 24 25 26 26 26 27 26 27 26 27 25 27 25 27 28 28 28 29 27 27 26 27 27 26 28 24 24 24 23 22 22 22 22
18 19 19 20 21 21 22 23 23 23 23 24 24 25 25 27 26 26 26 27 27 26 26 27 25 26 27 27 27 27 26 26 26 27 27 26 27 25 23 24 24 24 21 21 22
18 19 20 20 21 21 22 22 23 23 22 24 24 25 26 25 26 25 26 26 25 26 25 26 24 25 27 25 25 24 26 25 25 27 27 23 26 25 23 22 22 23 23 21 21
19 20 20 20 20 21 22 22 23 22 22 24 24 25 26 26 26 26 26 26 27 25 26 26 26 25 25 27 25 26 28 27 27 27 27 22 24 23 21 21 21 21 23 20 22
19 20 20 20 20 21 21 23 20 20 21 22 22 22 25 25 25 25 25 25 23 24 24 26 26 26 26 27 27 25 28 27 25 26 26 22 24 22 19 19 19 20 21 20 19
20 19 19 19 20 20 21 22 21 20 21 22 23 23 24 24 25 25 25 26 25 24 26 25 25 25 24 25 25 24 26 23 24 20 24 23 21 21 20 18 19 19 20 19 17
20 20 19 20 20 20 21 20 20 19 21 21 22 22 24 24 25 25 24 24 24 23 22 24 25 24 24 24 23 25 22 25 24 23 23 22 21 22 20 18 19 19 17 17 16
19 19 18 19 19 20 21 20 19 19 20 22 22 22 22 23 24 24 24 23 23 22 22 24 25 24 24 23 24 24 24 21 23 22 24 23 23 19 18 17 17 16 16 15 15
19 19 19 19 19 12 20 18 19 21 20 22 21 22 23 22 22 23 24 23 20 23 25 22 25 24 23 22 21 22 22 24 26 22 21 23 21 18 17 18 17 15 14 13 12
17 17 18 19 20 19 18 19 19 21 22 21 22 21 21 22 22 21 22 20 20 22 23 22 23 23 23 24 22 23 21 19 21 22 22 23 21 18 17 17 16 16 15 14 13
16 18 17 18 15 17 18 19 20 20 20 20 22 21 21 21 19 22 21 21 19 19 18 21 20 24 26 24 23 23 22 20 23 24 23 23 18 17 17 17 15 15 14 14 14
15 13 12 17 17 15 15 16 19 19 20 19 21 22 21 20 20 21 20 20 20 18 18 22 21 20 20 20 21 20 20 21 22 21 23 22 20 18 17 17 15 14 14 14 14
12 12 12 13 12 15 15 18 17 18 18 20 19 21 21 21 23 21 21 20 22 19 19 19 19 20 20 20 21 20 20 19 19 18 19 20 19 18 15 14 14 14 14 13 13
12 12 12 12 14 16 17 17 18 17 18 19 19 20 20 20 20 19 18 17 19 21 18 18 19 20 21 18 20 20 18 18 17 17 19 19 19 16 15 15 14 13 13 12 12

GFSSW_850_temp_288.txt.gz
Temp
18 19 19 20 20 20 21 21 21 22 22 23 23 24 24 24 24 24 24 23 23 23 23 21 20 20 21 23 23 23 30 28 29 29 27 26 27 25 24 24 24 23 23 21 19
17 18 19 19 20 20 21 21 21 21 22 23 23 24 24 25 25 24 23 23 23 23 21 22 22 21 24 24 25 27 30 29 29 29 28 27 27 25 25 24 23 23 21 19 19
17 18 19 19 20 20 20 21 21 21 22 23 23 24 25 25 25 26 24 23 23 23 22 22 22 23 26 25 26 27 29 29 28 29 28 27 27 26 26 26 24 22 20 20 20
17 18 18 19 20 20 20 21 21 21 22 23 24 24 25 25 29 25 24 24 23 23 22 22 24 25 27 29 26 29 28 29 28 28 28 27 26 27 26 26 24 22 21 20 20
17 18 18 19 20 20 21 21 21 21 22 23 24 24 25 26 27 25 24 24 23 22 24 25 27 27 29 28 28 29 29 29 28 27 27 26 26 26 24 25 24 22 21 21 21
17 18 18 19 20 20 21 21 21 22 22 23 24 25 24 28 25 25 24 24 24 22 24 25 26 27 28 27 27 29 29 28 27 27 27 27 26 26 24 24 23 22 22 22 21
17 18 19 19 20 21 21 22 21 22 23 23 24 25 24 26 25 24 24 23 23 23 25 25 25 27 28 29 27 29 29 29 28 27 27 27 27 26 24 24 23 23 22 22 22
17 18 19 20 21 21 22 22 22 22 23 24 24 24 27 26 26 25 23 23 23 23 24 24 24 25 27 27 29 30 30 29 28 28 27 28 26 25 24 24 24 24 23 22 22
17 18 19 20 21 22 22 22 22 22 23 24 24 24 27 25 25 24 24 26 25 24 24 24 26 27 26 29 30 30 30 30 28 29 28 29 27 26 25 25 25 24 23 23 22
17 18 19 20 22 22 22 22 22 23 23 24 24 25 25 27 25 24 24 24 26 27 27 26 29 32 32 29 29 30 31 30 30 29 29 28 28 27 26 26 25 25 24 24 23
18 18 19 20 22 22 22 22 23 23 23 27 27 27 26 26 26 26 25 25 26 28 30 30 31 31 32 31 32 30 30 30 30 30 29 29 29 27 26 27 26 25 25 24 24
18 19 19 20 22 22 22 23 22 22 27 25 24 25 25 26 27 27 26 27 28 28 30 30 31 32 32 31 31 31 31 31 31 30 31 30 29 28 27 27 27 26 25 25 25
18 19 19 20 22 22 22 22 23 23 26 26 26 27 27 26 28 28 27 28 29 28 29 31 32 31 31 32 31 32 32 32 32 30 31 31 30 28 28 27 27 27 26 25 25
18 19 20 20 21 21 21 23 24 24 28 28 27 27 26 27 28 28 27 28 29 29 28 28 31 30 31 31 32 32 31 32 31 31 30 31 28 29 29 28 27 26 26 26 26
18 19 20 20 21 21 21 23 24 23 27 27 28 26 28 28 29 27 27 28 29 29 29 28 30 29 31 32 31 31 31 32 32 32 31 31 31 29 29 28 28 27 24 25 26
19 20 21 21 20 21 22 23 23 27 26 27 28 28 28 29 29 27 27 27 28 29 30 29 28 30 30 29 30 31 31 31 32 32 31 31 31 30 29 27 27 28 26 23 24
19 20 21 20 20 21 22 22 26 26 27 27 28 28 29 29 29 29 29 29 29 28 28 29 29 29 29 30 30 31 32 30 30 30 30 30 30 28 26 23 25 26 26 26 24
19 20 20 20 20 21 21 26 24 26 26 27 27 28 29 30 29 29 29 29 29 30 30 29 27 28 29 30 31 31 32 31 28 30 31 28 29 28 24 22 23 23 24 26 25
20 19 19 19 20 21 23 25 26 25 25 26 27 27 28 29 28 29 28 29 30 29 28 29 29 29 29 30 29 30 30 31 30 30 29 31 27 25 24 23 22 24 25 25 24
20 19 18 19 20 20 24 24 25 25 25 26 26 26 27 28 28 28 28 30 29 29 30 30 29 29 27 29 28 30 30 29 30 27 27 30 28 28 25 23 22 21 20 20 20
19 22 19 19 20 22 24 26 25 24 24 25 26 26 27 27 28 29 29 28 29 28 28 30 30 28 28 29 30 28 29 29 30 29 29 29 29 25 24 23 22 20 18 17 15
18 24 19 20 23 23 25 24 21 25 24 25 25 25 26 27 27 28 28 29 27 28 28 29 30 28 28 26 27 29 30 30 29 28 29 28 27 24 23 21 18 17 15 13 12
19 20 19 20 24 24 23 24 23 24 25 25 25 25 26 26 26 27 28 25 25 28 28 29 29 27 26 27 27 28 28 29 29 29 28 27 27 24 22 20 17 14 13 12 12
18 23 21 21 20 23 23 23 23 23 23 24 25 25 25 25 26 26 26 25 24 26 21 25 29 28 28 28 29 26 27 27 28 28 29 28 24 22 22 20 17 16 14 14 15
17 19 16 22 22 22 22 22 23 23 23 23 24 24 25 25 25 25 27 24 24 21 24 28 27 27 26 27 27 27 26 26 26 28 27 27 26 23 22 21 18 17 17 17 16
16 17 17 20 18 21 17 22 22 22 22 23 23 24 25 24 26 26 25 25 25 24 26 26 24 26 25 25 26 25 25 25 25 25 25 26 25 24 21 19 18 18 18 17 16
12 13 15 17 21 21 22 21 21 22 22 22 22 23 24 25 25 25 25 23 24 25 24 25 24 24 25 24 25 24 25 24 24 23 25 25 25 22 20 19 19 18 17 16 15

GFSSW_850_temp_291.txt.gz
Temp
18 18 19 20 20 21 21 21 21 22 22 23 23 23 24 24 24 24 25 25 23 23 23 23 22 23 24 26 27 27 27 30 31 30 29 29 29 28 27 26 27 27 25 24 22
17 18 19 19 20 20 21 21 21 22 22 23 23 24 24 25 25 25 25 24 24 23 23 24 25 24 28 28 29 28 31 31 32 31 30 30 29 28 28 27 27 26 24 23 22
17 18 18 19 20 20 21 21 21 22 22 23 23 24 24 25 25 26 24 24 23 23 24 25 25 26 30 30 28 30 31 32 31 31 30 30 29 29 29 28 27 25 23 23 23
17 17 18 19 20 20 21 21 21 22 22 23 24 24 25 25 29 25 25 24 23 23 25 26 27 29 31 31 29 31 32 31 31 31 30 30 29 29 30 28 26 24 23 23 24
17 17 18 19 20 21 21 21 22 22 22 23 24 25 25 26 27 25 24 24 24 23 26 28 29 31 30 31 30 32 32 31 30 30 29 29 29 28 28 27 25 24 24 24 24
17 18 18 19 20 21 21 22 22 22 23 23 24 25 25 29 26 26 24 24 24 25 27 28 30 28 31 31 28 30 32 31 30 30 29 29 28 28 27 26 25 24 24 25 25
17 17 18 19 20 21 22 22 22 23 23 24 24 25 25 27 26 25 24 25 24 25 28 28 28 30 31 29 31 31 31 31 30 30 30 29 29 28 27 26 25 25 25 25 24
17 18 18 20 21 21 22 22 22 23 23 24 25 25 29 25 27 26 26 26 26 26 27 27 27 29 31 30 32 30 31 29 30 30 30 26 27 28 27 27 26 26 25 25 24
18 18 18 20 21 22 22 22 23 23 24 24 25 25 29 26 26 27 27 28 28 27 28 27 27 30 31 32 31 29 25 23 30 31 31 26 28 28 27 27 27 26 26 25 25
18 18 19 20 21 22 22 22 23 23 24 25 24 27 28 28 28 27 27 28 29 29 29 29 30 31 31 30 23 29 30 31 30 32 32 32 30 29 28 28 28 27 26 26 26
18 19 19 20 21 22 22 22 23 24 24 29 29 30 29 29 27 27 27 28 29 30 32 31 33 32 29 31 31 33 30 30 29 33 32 32 30 30 29 29 29 28 27 27 26
18 19 19 20 22 22 23 25 25 24 28 28 28 29 29 29 29 29 28 29 30 31 33 33 33 34 34 34 34 34 32 33 33 33 31 32 30 30 30 30 29 29 28 27 27
19 19 20 21 22 23 23 24 23 24 28 29 29 28 29 29 30 30 29 30 32 32 32 33 34 34 33 34 33 34 34 33 32 33 24 20 29 30 31 30 29 29 28 28 27
19 20 20 21 23 23 24 23 24 24 29 31 30 29 29 29 31 31 30 30 32 32 32 32 34 33 33 33 34 34 35 34 33 33 30 31 21 20 30 30 30 30 28 28 28
19 20 21 21 22 23 23 23 24 25 29 31 31 30 30 30 32 30 30 31 31 32 32 31 31 32 32 34 35 33 34 34 34 31 30 30 31 23 27 30 31 30 29 29 28
20 21 21 21 21 22 22 23 24 28 28 30 31 30 31 31 31 31 30 30 31 32 33 32 31 31 33 33 34 34 33 33 34 34 32 34 34 31 31 31 31 31 29 28 28
20 21 21 21 22 21 22 24 28 28 31 31 31 32 31 31 32 31 30 30 30 29 30 32 32 32 32 32 32 33 33 32 31 32 32 35 33 31 31 30 31 31 30 27 27
20 20 20 20 19 20 22 27 26 30 31 30 30 32 31 32 32 31 31 31 32 32 32 31 31 31 32 32 32 32 33 33 31 33 33 33 32 30 29 27 27 27 29 29 27
20 19 20 20 20 20 24 27 28 30 30 29 31 30 31 32 32 32 31 32 32 32 31 32 32 34 33 33 33 33 32 34 33 34 33 34 30 29 29 28 27 28 28 29 28
20 22 22 20 20 22 26 25 30 29 28 29 28 30 30 31 31 31 31 32 32 33 32 32 31 32 32 32 32 32 34 32 32 29 29 32 32 30 28 28 27 27 26 21 18
20 24 22 21 21 24 26 28 29 27 27 28 29 29 30 30 31 31 31 32 32 32 31 32 32 32 31 30 31 31 31 32 33 33 31 31 31 31 29 28 24 20 16 14 15
21 26 22 21 25 27 28 29 25 28 26 27 28 28 28 30 30 30 31 32 31 32 30 31 32 31 31 32 32 32 32 32 31 30 32 31 30 29 28 25 18 16 13 14 13
22 24 22 22 26 28 27 27 26 27 27 27 27 28 29 28 27 29 31 30 30 31 30 31 30 30 30 31 31 30 31 31 32 32 31 30 28 28 24 23 21 17 14 12 12
21 26 24 24 25 26 26 26 26 26 26 26 27 27 28 27 28 28 30 30 29 30 27 28 31 30 30 29 32 29 31 30 31 30 31 31 28 26 24 21 18 15 13 13 13
22 24 22 26 26 26 25 26 25 26 26 26 26 27 27 26 27 28 29 30 28 26 27 30 29 30 30 29 30 30 30 30 29 30 29 30 30 27 25 22 18 15 15 15 15
19 20 22 24 23 24 20 25 25 25 25 25 25 26 27 26 27 28 29 29 28 28 28 30 28 29 29 29 29 29 29 29 29 29 28 29 29 28 25 22 19 18 18 18 18
16 18 19 21 24 25 25 24 24 25 25 25 26 26 26 27 27 28 28 29 29 28 28 29 29 28 27 28 28 27 29 29 28 28 27 27 27 26 25 23 20 20 20 18 17

GFSSW_850_temp_297.txt.gz
Temp
18 19 19 20 20 21 21 21 21 22 22 23 23 24 24 24 24 24 25 25 25 25 25 23 24 24 25 25 23 20 21 26 27 28 28 28 27 27 26 25 24 24 22 22 21
17 18 19 19 20 21 21 21 21 22 23 23 23 24 24 25 25 25 26 25 25 25 24 24 25 26 25 23 23 19 21 29 30 29 29 28 28 28 28 26 24 23 23 22 22
17 18 19 19 20 21 21 21 21 22 23 23 23 24 24 24 25 27 26 25 25 25 25 25 27 24 22 25 25 27 26 31 31 31 30 29 29 29 27 24 24 23 23 23 21
17 18 19 19 20 21 21 21 22 22 23 23 23 24 24 24 25 26 26 25 25 25 25 24 23 23 22 24 28 27 31 31 31 30 30 29 29 29 27 25 24 23 23 23 23
17 18 18 19 20 21 21 22 22 22 23 23 23 24 24 23 26 26 26 25 25 25 22 22 20 20 24 26 27 28 31 31 31 31 30 30 29 29 26 25 24 24 24 24 24
18 18 19 19 20 21 22 22 22 23 23 23 23 24 24 23 27 27 26 25 25 24 24 23 24 23 24 24 24 24 31 30 30 30 29 29 29 27 26 25 24 24 24 24 24
18 18 19 20 21 22 22 22 23 23 23 24 24 24 24 26 27 27 27 26 26 25 24 27 28 25 25 23 24 23 28 29 30 30 29 29 27 26 26 25 25 25 25 24 24
18 19 19 20 21 22 22 22 23 23 24 24 24 24 26 28 28 27 27 27 26 26 27 28 28 26 22 22 22 22 23 25 29 30 28 28 24 27 26 26 25 25 26 25 23
19 19 20 20 22 23 22 23 24 24 24 24 24 24 25 28 27 28 27 26 27 27 28 29 29 23 21 19 19 21 21 23 24 30 29 27 25 27 27 26 26 26 26 25 24
19 19 20 21 22 23 23 23 24 24 24 24 24 23 27 28 28 28 27 28 28 28 28 29 29 20 19 18 18 20 21 22 22 27 29 27 26 27 27 27 26 27 26 25 24
19 20 21 21 23 23 24 24 24 24 24 25 27 27 30 29 29 29 28 29 29 30 27 30 27 21 20 21 23 23 22 22 25 26 22 24 27 27 27 27 27 27 26 25 25
19 20 21 22 23 24 24 24 26 27 27 28 28 28 29 31 30 29 29 29 29 27 30 28 27 29 24 24 25 23 23 23 21 25 22 22 22 22 24 28 27 27 27 25 25
20 20 22 22 23 24 24 25 26 27 26 28 29 29 31 31 30 30 30 30 29 28 29 28 31 29 28 27 23 24 23 23 23 20 19 20 19 21 24 25 28 28 27 26 25
20 21 22 23 24 24 25 26 26 27 23 27 29 30 31 31 30 31 31 30 30 28 29 29 32 34 32 31 30 28 29 29 24 23 19 21 20 19 21 22 22 28 27 26 25
20 21 21 22 23 24 25 26 26 26 22 30 30 31 31 31 31 31 31 31 29 29 30 29 30 31 32 32 32 31 32 29 28 26 21 20 19 19 19 23 22 27 28 27 26
20 21 22 22 23 24 25 25 26 23 24 31 31 30 29 31 31 32 32 32 32 30 30 29 32 32 32 32 31 32 32 30 30 25 24 21 21 21 19 22 22 25 27 27 25
21 21 22 22 23 23 24 25 22 23 32 30 29 30 29 29 29 30 30 30 27 27 26 28 29 31 33 31 30 30 28 23 25 24 25 22 21 21 24 24 25 25 27 27 26
21 22 22 23 23 23 24 23 23 28 29 32 32 30 28 29 29 30 29 27 28 29 26 25 26 30 31 29 28 28 27 23 25 24 27 24 25 25 26 26 25 26 28 29 25
21 22 22 23 23 23 24 21 24 27 31 30 30 30 29 30 30 29 28 27 28 27 25 26 26 31 32 31 29 28 26 27 26 27 26 26 25 23 23 23 21 24 25 22 19
21 22 23 23 23 23 22 21 25 28 30 28 28 28 26 28 28 29 28 29 30 30 29 27 25 28 31 31 31 28 29 26 23 25 26 26 25 23 24 22 22 20 19 18 17
22 21 24 24 23 24 21 24 27 30 30 28 27 26 26 27 27 27 29 30 31 31 30 28 25 27 29 29 28 27 26 27 26 24 24 24 24 26 21 20 18 17 17 16 16
20 21 25 24 23 24 22 26 29 29 29 29 28 27 26 26 25 26 27 28 31 30 29 28 26 25 28 28 30 28 27 27 22 23 24 23 21 20 18 17 16 14 14 14 14
18 21 25 25 21 23 26 27 29 28 28 28 27 28 27 26 24 25 27 29 30 27 24 29 25 23 24 25 29 29 28 27 26 24 23 24 20 18 17 15 14 14 13 14 15
16 21 25 25 25 24 24 26 27 29 28 28 26 27 25 24 24 25 26 29 30 28 30 29 26 23 21 25 28 28 29 29 27 23 24 21 19 18 18 16 14 13 12 13 13
18 22 21 21 23 24 24 24 25 26 28 27 26 26 25 24 24 24 25 26 28 29 30 26 25 27 25 27 27 28 29 28 25 26 25 22 21 19 18 16 15 13 12 12 12
18 18 19 20 23 25 24 24 25 27 25 25 24 26 25 24 24 24 25 23 25 23 28 26 22 27 24 25 27 26 25 27 26 27 23 20 18 18 17 16 14 14 14 13 14
16 16 18 20 22 23 23 25 26 25 26 26 25 24 24 25 26 27 27 25 23 22 20 21 22 22 22 24 24 20 21 25 26 25 24 21 19 18 17 16 15 15 15 15 15

GFSSW_850_temp_303.txt.gz
Temp
17 18 18 19 20 20 20 21 22 22 22 22 23 23 24 24 24 24 24 24 23 22 22 21 21 21 21 20 20 20 20 22 24 25 25 25 23 23 22 20 21 21 20 19 18
17 17 18 19 20 20 20 21 22 22 22 22 23 23 24 24 25 25 25 24 23 22 22 23 21 20 20 20 20 19 20 25 26 26 25 24 24 22 21 21 20 19 19 18 18
17 18 18 19 20 20 21 21 22 22 22 23 23 23 24 25 25 25 25 24 23 24 24 24 23 21 20 21 22 23 23 27 27 26 25 24 23 23 22 20 20 19 19 18 18
17 18 18 19 19 20 21 21 22 22 23 23 23 24 25 25 24 25 25 25 24 24 24 25 24 23 21 22 24 24 27 27 27 26 25 24 23 23 22 22 21 21 20 19 19
18 18 18 19 19 20 21 21 22 22 23 23 24 24 25 25 26 25 25 25 24 25 25 25 24 23 21 22 24 24 25 28 28 27 26 25 24 23 22 21 21 20 20 19 19
18 18 19 19 20 21 21 21 22 23 23 23 24 25 25 25 25 25 25 25 25 25 24 24 24 23 23 22 23 22 24 27 27 27 25 25 23 23 22 21 21 20 20 20 20
18 19 19 19 20 21 21 22 22 23 23 24 24 25 25 26 25 25 25 26 26 26 25 25 27 24 23 23 23 24 27 27 26 25 24 24 23 22 22 21 21 20 21 21 21
18 19 19 20 21 21 21 22 22 23 23 24 24 25 26 25 25 25 24 25 25 26 26 26 26 24 23 23 23 23 22 23 26 25 25 24 21 22 22 22 21 21 20 21 21
19 19 20 21 21 22 22 22 23 23 24 24 24 24 26 25 25 25 25 25 25 24 24 24 24 22 22 21 21 19 22 23 26 26 26 23 21 23 22 22 22 22 22 22 21
19 20 20 21 22 22 22 22 23 23 23 24 24 24 25 26 26 26 26 25 25 25 23 23 23 21 20 21 22 21 21 23 22 23 24 23 22 23 23 22 22 22 23 23 22
19 20 21 22 23 23 23 23 23 23 24 26 26 25 26 27 26 26 26 26 25 25 23 24 22 21 24 22 24 24 23 22 23 24 23 22 22 23 23 23 22 22 23 23 23
20 21 21 22 23 24 24 24 23 23 23 26 26 26 27 27 27 26 26 25 25 23 24 24 22 24 24 23 24 24 23 21 22 22 22 21 22 23 23 23 23 23 23 23 23
20 21 22 22 23 24 24 23 24 24 23 25 27 27 28 28 28 28 27 26 26 24 24 23 26 28 26 23 24 23 22 21 22 21 20 21 21 22 22 23 24 24 24 23 24
20 21 22 22 23 24 24 24 24 25 17 22 25 28 28 29 28 29 28 28 26 25 24 24 27 28 25 23 23 21 24 24 21 21 20 21 20 20 22 21 22 24 23 24 23
20 21 22 22 23 23 24 25 25 25 22 25 26 29 29 29 29 29 29 28 26 26 25 25 27 28 25 25 24 24 24 24 21 19 20 19 20 20 21 22 23 23 24 23 24
20 22 22 22 23 23 24 25 25 19 24 27 27 27 26 28 28 29 29 29 28 26 25 25 28 28 26 28 25 26 22 19 19 18 19 19 19 20 19 23 24 24 25 23 23
21 22 23 23 23 23 24 25 18 19 24 27 26 26 25 26 27 26 26 25 24 24 23 24 26 27 29 27 24 24 20 17 19 19 21 19 19 22 22 23 25 24 25 24 24
22 23 23 22 22 23 24 19 22 23 22 25 26 23 25 25 26 26 25 24 24 24 20 23 23 27 28 27 24 22 21 22 22 18 20 19 19 22 20 22 24 23 24 25 24
22 23 23 23 23 23 24 17 19 20 25 25 25 24 24 24 26 25 24 23 24 21 23 20 22 25 26 27 26 26 22 23 20 20 20 19 21 21 18 17 17 17 19 20 22
22 23 23 22 22 22 18 17 19 20 24 25 25 24 23 24 24 24 24 25 26 25 23 23 24 25 27 28 26 25 23 23 19 23 23 21 21 21 18 17 17 16 15 15 16
23 23 23 22 22 23 17 16 20 25 24 25 24 24 23 23 23 23 24 25 24 25 23 21 21 24 26 26 25 25 23 19 19 18 20 20 20 20 17 16 15 14 13 14 15
22 18 23 23 21 13 17 19 24 24 26 25 25 24 23 23 23 24 24 25 26 25 25 22 18 21 23 24 23 26 26 20 19 22 17 18 18 17 17 15 14 13 14 15 16
20 20 22 22 17 15 17 20 22 23 24 25 24 25 23 23 23 23 23 26 25 25 25 23 19 19 22 22 23 23 23 20 16 16 17 19 18 16 15 15 14 14 16 16 18
19 15 21 22 20 18 18 19 21 24 23 23 22 22 22 22 21 23 23 24 25 24 23 22 16 19 19 22 21 22 21 22 19 18 17 18 17 16 16 15 14 13 13 13 13
18 14 15 13 16 14 16 18 20 22 23 23 22 21 22 21 21 21 22 21 23 24 22 19 20 21 20 19 20 19 20 20 21 20 22 20 17 18 16 15 14 12 13 13 14
15 14 15 16 16 15 13 17 18 23 23 23 23 23 21 21 21 21 21 20 21 22 21 16 19 20 19 20 20 19 20 20 20 17 17 17 17 18 15 14 13 13 13 14 15
14 14 14 14 13 14 15 16 18 19 23 23 23 22 22 23 23 24 23 21 19 20 18 18 16 17 18 18 20 18 19 18 19 17 17 18 16 14 14 13 13 14 15 16 15